Temp
75 79 84 80 66 65 62 61 66 64 65 73 73 73 73 74 73 68 81 83 81 83 87 85 79 79 79 79 78 78 79 79 79 79 80 79 79 80 79 79 80 80 80 79 79 79 78 78 77
78 78 80 74 63 58 64 64 62 67 69 71 72 73 73 70 75 76 77 81 81 82 87 89 78 79 79 79 79 78 78 79 79 79 79 79 79 80 80 80 80 80 79 79 78 77 77 77 77
76 77 72 67 63 60 63 62 66 67 69 70 72 75 73 68 74 74 79 73 81 83 87 87 78 78 79 79 78 78 78 78 78 79 79 79 79 80 80 79 78 78 77 77 77 77 76 76 76
77 76 70 61 58 61 61 64 66 66 69 71 70 69 72 74 73 77 76 70 78 82 88 82 77 78 78 78 78 78 78 78 78 78 78 79 79 79 79 78 77 76 76 76 77 76 76 76 76
76 71 60 57 59 59 63 65 66 66 66 68 69 66 68 73 77 79 76 70 69 79 85 87 77 78 78 78 78 78 78 78 78 78 78 79 79 79 78 76 75 76 76 76 76 76 76 75 75
65 68 57 55 57 58 63 65 65 66 66 68 68 68 69 75 75 76 78 73 70 70 74 84 77 76 77 77 78 77 77 78 78 78 78 78 78 78 77 76 75 76 76 76 76 76 75 75 75
63 61 58 56 57 57 61 64 64 65 65 66 69 66 72 73 75 75 77 79 73 71 72 75 83 81 73 75 76 77 77 76 77 77 77 77 76 76 76 75 75 76 76 76 76 75 75 75 74
66 63 54 57 57 57 59 61 62 62 65 69 70 67 68 72 74 76 77 79 79 74 75 76 80 82 83 80 73 74 75 75 75 75 74 72 72 73 74 73 74 75 75 74 75 75 75 74 73
62 57 54 55 54 56 58 59 62 64 63 65 68 67 70 72 75 74 73 75 76 77 77 78 79 79 81 82 77 72 72 72 71 73 70 71 83 80 77 75 72 73 74 74 74 74 74 72 70
60 55 54 56 57 55 56 56 58 59 61 62 65 70 72 73 72 69 69 69 72 73 75 77 78 78 78 81 82 80 77 77 79 81 80 82 83 83 80 74 70 72 72 72 74 73 71 71 80
54 54 53 53 55 54 53 54 59 57 56 63 63 67 69 69 69 68 68 69 70 72 74 75 76 77 78 78 80 78 77 76 76 77 81 82 79 79 80 78 78 79 71 80 77 76 80 82 83
50 52 53 52 52 52 52 56 54 57 60 66 66 67 67 66 67 67 67 68 69 70 72 74 76 76 78 78 80 79 78 78 76 78 77 75 75 77 80 79 77 78 81 81 81 82 82 81 82
51 50 51 53 52 53 55 52 54 56 62 65 65 63 63 64 66 67 68 67 68 67 70 73 74 75 76 76 78 79 79 80 80 78 80 78 77 76 80 78 78 78 82 82 81 82 82 81 82
50 49 50 52 52 52 49 52 53 57 61 61 61 61 63 64 65 66 66 66 67 68 69 72 72 74 75 76 76 78 77 79 79 79 78 79 79 78 76 76 78 80 81 82 81 81 81 81 82
49 45 49 51 50 49 51 49 50 57 57 57 59 61 62 63 64 64 65 65 67 69 69 69 71 73 73 74 76 77 78 76 76 79 79 78 78 77 75 76 77 80 81 82 81 81 81 80 80
45 45 43 47 48 50 49 45 51 55 55 56 60 63 63 64 64 65 65 65 67 67 67 69 71 71 72 74 74 77 78 79 74 78 79 78 78 78 77 76 78 81 80 80 79 79 78 79 78
42 39 40 44 48 47 45 44 51 55 55 55 58 60 61 62 64 65 66 65 65 67 67 66 68 69 70 72 73 74 75 77 78 75 76 78 77 77 77 76 79 80 79 78 78 78 78 77 77
32 35 38 39 46 45 44 44 51 55 54 54 56 58 60 60 62 65 65 65 65 65 66 66 67 68 70 71 71 72 74 74 77 76 74 77 77 75 75 74 77 78 77 77 77 76 78 78 78
37 35 36 43 46 40 44 46 50 53 54 52 54 57 58 61 64 65 64 63 63 63 63 64 64 66 68 68 68 69 70 72 74 75 76 77 75 73 73 75 73 75 76 77 77 76 74 75 78
37 36 38 44 43 41 44 44 51 51 51 52 54 56 59 59 61 62 63 63 61 61 62 63 63 64 66 68 69 71 72 73 75 75 75 73 72 71 73 73 69 72 76 76 76 75 73 74 75
39 36 38 37 42 45 41 45 45 50 51 52 54 57 59 58 58 60 61 62 62 60 61 61 62 63 65 66 67 68 69 71 71 72 72 71 72 71 71 71 68 69 73 74 74 73 73 71 74
31 42 39 36 32 30 42 32 42 48 48 50 54 57 57 57 58 59 59 60 60 61 61 61 61 62 64 65 65 65 65 65 69 71 72 73 71 71 71 70 69 68 69 71 71 72 71 73 70
36 40 38 37 31 31 35 28 41 45 46 50 53 54 54 55 56 56 57 58 60 60 59 60 60 61 62 63 64 65 65 68 71 72 72 72 69 70 69 69 69 67 67 70 68 67 67 72 71
44 39 37 34 31 26 33 33 36 43 45 48 51 49 49 51 52 54 56 58 58 59 59 59 58 59 61 61 63 63 65 67 68 69 70 72 72 68 72 71 68 68 66 65 66 63 65 68 68
38 33 29 27 27 29 28 28 36 45 48 49 44 45 47 47 46 48 50 54 57 57 58 59 58 57 60 60 61 62 64 66 66 67 69 70 71 71 69 67 67 66 66 66 68 63 63 63 65
33 32 29 22 27 31 30 28 38 47 52 50 45 44 44 45 46 49 53 56 57 57 58 60 59 58 60 60 60 62 63 64 66 68 69 70 72 73 72 68 67 67 67 66 66 64 63 63 64
34 30 39 30 31 27 36 38 45 49 45 42 40 41 40 42 47 48 53 59 58 58 58 60 59 60 61 61 61 61 63 63 64 66 68 70 71 73 74 72 69 67 66 67 66 66 64 65 65
36 38 30 32 25 25 33 31 33 34 35 37 37 38 39 43 46 48 51 56 59 59 60 61 61 60 61 62 62 62 63 64 65 66 66 68 69 70 72 73 72 69 66 66 66 65 65 65 66
35 34 34 34 34 27 27 32 37 34 36 34 35 37 40 43 44 46 49 52 55 60 60 61 61 61 61 62 63 63 63 64 65 64 66 68 69 70 70 71 72 71 68 66 65 65 64 64 65
42 39 36 31 29 31 29 31 42 39 39 36 36 39 42 43 44 45 47 48 49 51 55 60 61 61 61 63 63 63 63 63 63 64 65 67 68 70 70 70 70 72 72 68 65 64 64 63 63
MSLP
1015.33 1015.05 1014.46 1013.62 1013.26 1012.43 1011.18 1011.72 1012.35 1012.34 1012.48 1012.50 1012.64 1012.21 1011.88 1012.11 1011.68 1012.39 1013.86 1013.93 1014.16 1013.57 1013.27 1013.94 1014.44 1014.81 1015.05 1015.27 1015.56 1015.83 1016.06 1016.20 1016.40 1016.64 1016.92 1017.02 1017.15 1017.27 1017.27 1017.24 1017.23 1017.25 1017.38 1017.52 1017.67 1017.96 1018.21 1018.47 1018.74
1015.29 1014.83 1014.25 1013.47 1012.54 1011.66 1011.19 1012.21 1012.46 1012.74 1013.10 1013.22 1013.09 1012.86 1012.69 1012.85 1013.74 1013.96 1014.12 1014.53 1014.40 1013.65 1013.34 1013.49 1014.45 1014.82 1015.10 1015.41 1015.56 1015.89 1016.09 1016.34 1016.58 1016.82 1016.99 1017.26 1017.32 1017.44 1017.50 1017.45 1017.52 1017.60 1017.74 1017.91 1018.24 1018.36 1018.69 1018.88 1019.01
1015.18 1014.89 1013.59 1013.09 1012.50 1011.48 1011.56 1012.75 1012.86 1013.62 1013.83 1013.54 1013.21 1013.51 1013.64 1014.49 1014.91 1015.42 1015.68 1015.52 1014.20 1013.48 1013.35 1013.57 1014.43 1014.78 1015.08 1015.33 1015.63 1015.90 1016.17 1016.41 1016.64 1016.88 1017.13 1017.24 1017.47 1017.49 1017.63 1017.70 1017.88 1018.01 1018.12 1018.35 1018.64 1018.82 1018.99 1019.23 1019.34
1014.71 1014.53 1014.75 1013.47 1012.46 1012.81 1013.02 1013.34 1013.67 1013.84 1014.08 1014.06 1014.04 1013.85 1015.01 1015.95 1015.80 1016.31 1016.21 1015.75 1014.44 1013.54 1013.35 1013.82 1014.51 1014.74 1015.06 1015.43 1015.68 1015.98 1016.19 1016.45 1016.71 1016.81 1017.07 1017.24 1017.42 1017.67 1017.78 1018.07 1018.22 1018.35 1018.55 1018.71 1018.87 1019.19 1019.35 1019.43 1019.64
1014.87 1014.42 1013.82 1013.48 1013.05 1013.72 1014.18 1014.39 1014.37 1014.01 1014.29 1014.23 1014.39 1014.33 1014.99 1016.07 1016.42 1016.46 1016.27 1016.03 1015.31 1014.27 1013.66 1013.88 1014.56 1014.87 1015.04 1015.44 1015.64 1016.00 1016.29 1016.52 1016.78 1016.97 1017.06 1017.28 1017.48 1017.74 1018.05 1018.27 1018.59 1018.71 1018.86 1018.99 1019.13 1019.38 1019.66 1019.70 1019.84
1014.65 1014.43 1013.56 1013.18 1013.62 1014.45 1014.76 1015.06 1015.08 1014.75 1014.77 1014.68 1014.58 1014.66 1015.14 1016.23 1016.42 1016.59 1016.36 1016.29 1016.08 1015.47 1014.93 1014.20 1014.71 1015.14 1015.41 1015.45 1015.72 1016.02 1016.39 1016.66 1016.92 1017.12 1017.26 1017.39 1017.57 1017.75 1018.18 1018.52 1018.71 1018.96 1019.07 1019.21 1019.37 1019.58 1019.83 1020.04 1020.13
1014.62 1014.23 1013.34 1013.63 1013.98 1014.70 1015.12 1015.83 1015.46 1015.28 1015.27 1015.15 1015.44 1014.74 1015.22 1016.04 1016.66 1016.85 1016.58 1016.30 1016.24 1015.94 1015.45 1015.13 1014.59 1015.09 1015.58 1015.63 1015.83 1016.15 1016.37 1016.69 1016.97 1017.24 1017.38 1017.59 1017.82 1018.03 1018.29 1018.54 1018.81 1019.03 1019.28 1019.43 1019.57 1019.82 1019.98 1020.18 1020.45
1015.76 1014.94 1014.50 1014.19 1014.20 1014.80 1016.09 1016.27 1016.63 1016.22 1015.72 1016.38 1016.06 1014.87 1015.08 1016.21 1016.81 1016.80 1016.61 1016.40 1016.34 1016.32 1016.04 1015.72 1015.13 1014.93 1015.13 1015.57 1015.99 1016.14 1016.27 1016.65 1016.95 1017.30 1017.58 1017.79 1017.98 1018.24 1018.50 1018.75 1018.91 1019.11 1019.38 1019.66 1019.75 1019.95 1020.19 1020.34 1020.64
1016.66 1015.70 1014.87 1014.83 1015.31 1015.77 1016.95 1016.72 1017.04 1017.15 1016.74 1016.56 1016.28 1016.18 1016.38 1016.74 1016.68 1016.61 1016.44 1016.32 1016.30 1016.20 1016.13 1016.01 1015.55 1015.39 1015.22 1015.32 1015.74 1016.08 1016.27 1016.57 1016.87 1017.33 1017.70 1017.98 1017.81 1018.22 1018.59 1018.62 1019.12 1019.32 1019.53 1019.78 1020.05 1020.19 1020.41 1020.67 1020.90
1016.55 1016.20 1015.95 1016.81 1016.85 1016.98 1017.55 1017.62 1017.49 1017.28 1016.77 1016.50 1016.42 1016.34 1016.49 1016.59 1016.64 1016.62 1016.66 1016.48 1016.39 1016.37 1016.41 1016.34 1016.03 1015.88 1015.60 1015.28 1015.34 1015.77 1016.15 1016.34 1016.60 1016.89 1017.34 1017.47 1017.47 1017.67 1018.17 1018.64 1019.26 1019.57 1019.79 1019.98 1020.18 1020.47 1020.73 1020.80 1020.65
1017.60 1016.98 1017.54 1017.92 1018.23 1018.45 1018.24 1018.12 1017.91 1017.41 1016.71 1016.33 1016.26 1016.24 1016.46 1016.61 1016.62 1016.71 1016.71 1016.75 1016.63 1016.55 1016.45 1016.41 1016.22 1016.15 1015.73 1015.57 1015.24 1015.53 1015.83 1016.16 1016.44 1016.48 1016.73 1016.96 1017.50 1017.74 1018.03 1018.48 1019.12 1019.34 1019.96 1019.90 1020.21 1020.50 1020.41 1020.08 1020.10
1018.32 1018.66 1018.66 1018.81 1019.15 1019.06 1018.67 1018.45 1017.96 1017.46 1016.80 1016.72 1016.81 1016.83 1016.73 1016.53 1016.48 1016.53 1016.52 1016.58 1016.51 1016.33 1016.27 1016.28 1016.25 1016.16 1015.85 1015.73 1015.29 1015.05 1015.39 1015.70 1016.05 1016.35 1016.65 1016.78 1017.23 1017.67 1017.60 1018.04 1018.59 1018.86 1019.17 1019.25 1019.62 1019.68 1019.80 1020.12 1020.14
1018.90 1019.23 1019.53 1019.58 1019.57 1019.30 1019.03 1018.44 1017.98 1017.14 1017.08 1016.94 1016.91 1016.93 1016.79 1016.45 1016.29 1016.30 1016.40 1016.47 1016.40 1016.14 1016.04 1015.98 1016.04 1016.04 1015.82 1015.74 1015.46 1015.04 1014.89 1015.04 1015.47 1015.85 1016.08 1016.48 1016.98 1017.35 1017.37 1017.86 1018.28 1018.60 1018.52 1018.84 1019.17 1019.44 1019.61 1019.90 1020.02
1019.98 1019.93 1019.93 1019.93 1019.63 1019.50 1019.08 1018.02 1017.90 1016.87 1016.93 1016.75 1016.71 1016.49 1016.43 1016.25 1016.09 1015.95 1015.95 1015.90 1015.97 1015.80 1015.56 1015.66 1015.63 1015.63 1015.63 1015.58 1015.45 1015.08 1014.94 1014.80 1014.97 1015.24 1015.65 1015.93 1016.24 1016.71 1017.24 1017.61 1017.82 1017.97 1018.34 1018.50 1018.88 1019.03 1019.39 1019.64 1019.82
1020.63 1020.16 1019.90 1019.92 1019.91 1019.40 1019.25 1017.53 1016.85 1016.92 1017.03 1016.60 1016.31 1016.11 1016.00 1015.90 1015.80 1015.64 1015.49 1015.40 1015.41 1015.26 1015.25 1015.28 1015.30 1015.31 1015.28 1015.23 1015.11 1014.94 1014.66 1014.66 1014.60 1014.64 1015.07 1015.44 1015.72 1016.19 1016.79 1017.15 1017.52 1017.56 1017.96 1018.21 1018.61 1018.93 1019.04 1019.32 1019.65
1020.71 1020.43 1019.74 1020.16 1020.25 1019.75 1019.46 1016.30 1017.01 1016.97 1016.78 1016.26 1015.78 1015.15 1014.88 1014.93 1014.92 1014.86 1014.93 1014.83 1014.77 1014.84 1014.80 1014.76 1014.81 1014.73 1014.68 1014.66 1014.64 1014.37 1014.21 1014.06 1014.28 1014.21 1014.42 1014.84 1015.18 1015.62 1016.07 1016.53 1016.79 1017.06 1017.55 1017.99 1018.34 1018.66 1019.07 1019.15 1019.32
1020.92 1020.16 1020.21 1019.95 1020.32 1020.09 1019.37 1016.72 1016.68 1016.88 1016.22 1015.33 1015.12 1014.74 1014.40 1014.15 1014.18 1014.10 1014.15 1014.28 1014.19 1014.19 1014.21 1014.21 1014.20 1014.15 1014.13 1014.15 1014.05 1014.05 1013.91 1013.68 1013.55 1013.77 1013.88 1014.19 1014.56 1015.07 1015.43 1015.89 1016.15 1016.49 1017.13 1017.64 1017.97 1018.28 1018.60 1019.00 1019.21
1021.18 1020.97 1020.80 1020.28 1020.08 1020.12 1018.92 1016.73 1015.96 1015.75 1015.40 1014.84 1014.59 1014.34 1013.92 1013.64 1013.44 1013.45 1013.55 1013.68 1013.65 1013.70 1013.62 1013.66 1013.59 1013.51 1013.51 1013.55 1013.60 1013.59 1013.53 1013.47 1013.15 1013.09 1013.27 1013.43 1013.82 1014.44 1014.99 1015.52 1015.85 1016.14 1016.76 1017.27 1017.63 1018.01 1018.22 1018.53 1018.94
1022.20 1021.60 1021.15 1020.41 1020.33 1020.08 1018.13 1016.09 1015.23 1014.71 1014.30 1014.20 1014.01 1013.72 1013.48 1013.09 1012.91 1012.95 1013.11 1013.21 1013.12 1013.02 1012.92 1012.85 1012.91 1012.90 1012.97 1012.84 1012.80 1012.85 1012.68 1012.82 1012.76 1012.75 1012.69 1012.66 1013.17 1013.79 1014.34 1014.73 1015.47 1015.71 1016.13 1016.48 1016.96 1017.54 1017.92 1018.06 1018.44
1022.43 1021.92 1021.06 1020.27 1020.19 1019.88 1017.69 1015.46 1014.44 1014.00 1013.74 1013.57 1013.64 1013.42 1013.01 1012.69 1012.41 1012.19 1012.16 1012.34 1012.43 1012.29 1012.21 1012.07 1012.06 1012.17 1012.24 1012.28 1012.14 1012.11 1012.07 1012.05 1012.03 1012.14 1012.16 1012.39 1012.85 1013.23 1013.49 1014.09 1014.76 1015.25 1015.52 1015.96 1016.44 1016.92 1017.48 1017.79 1018.11
1022.19 1021.80 1021.39 1020.63 1019.96 1019.01 1018.45 1015.05 1014.02 1013.92 1013.83 1013.75 1013.84 1013.58 1012.84 1012.24 1011.80 1011.51 1011.38 1011.34 1011.42 1011.49 1011.41 1011.35 1011.18 1011.25 1011.35 1011.62 1011.73 1011.70 1011.72 1011.58 1011.42 1011.43 1011.53 1011.76 1012.03 1012.52 1012.93 1013.30 1014.00 1014.72 1015.05 1015.44 1015.76 1016.33 1016.74 1017.08 1017.48
1021.90 1021.51 1021.55 1020.98 1020.90 1019.56 1018.78 1015.58 1013.77 1013.44 1013.56 1013.57 1013.29 1012.70 1012.18 1011.73 1011.56 1011.19 1010.77 1010.47 1010.44 1010.44 1010.61 1010.56 1010.51 1010.44 1010.49 1010.75 1010.91 1010.89 1010.75 1010.52 1010.57 1010.78 1011.18 1011.21 1011.45 1011.68 1012.09 1012.63 1013.16 1013.92 1014.53 1015.06 1015.49 1015.85 1016.11 1016.62 1016.79
1021.81 1021.94 1021.62 1021.52 1020.83 1020.08 1018.15 1017.31 1013.90 1013.75 1013.02 1013.01 1012.76 1012.47 1012.24 1011.86 1011.25 1010.50 1010.17 1009.80 1009.62 1009.70 1009.76 1009.65 1009.72 1009.70 1009.81 1009.89 1010.03 1009.95 1009.89 1009.85 1009.97 1010.14 1010.21 1010.61 1011.06 1011.20 1011.43 1011.88 1012.56 1013.17 1013.72 1014.29 1014.74 1015.36 1015.90 1015.89 1016.21
1021.98 1021.79 1021.37 1021.10 1020.38 1019.32 1017.81 1017.23 1014.14 1013.57 1013.37 1013.15 1012.84 1012.91 1012.58 1011.92 1011.18 1010.40 1009.71 1009.11 1008.73 1008.75 1008.78 1008.76 1008.79 1008.84 1009.01 1009.18 1009.28 1009.29 1009.27 1009.50 1009.53 1009.57 1009.57 1009.70 1010.18 1010.79 1010.76 1011.18 1011.78 1012.38 1013.11 1013.61 1014.28 1014.61 1015.31 1015.73 1015.79
1022.04 1021.52 1020.41 1020.00 1019.36 1018.26 1018.24 1017.50 1014.48 1014.07 1013.94 1013.80 1013.59 1013.19 1012.84 1012.22 1011.21 1010.20 1009.08 1008.20 1007.60 1007.54 1007.59 1007.67 1007.90 1008.03 1008.15 1008.33 1008.59 1008.87 1009.04 1009.16 1009.19 1009.36 1009.34 1009.29 1009.43 1009.79 1010.31 1010.84 1011.40 1011.67 1012.18 1012.80 1013.50 1014.13 1014.61 1015.18 1015.26
1021.62 1021.60 1020.56 1019.50 1018.42 1017.52 1017.80 1016.14 1014.24 1014.45 1014.37 1014.45 1014.49 1013.92 1013.07 1012.07 1011.02 1009.56 1007.99 1006.92 1006.72 1006.68 1006.72 1006.54 1006.76 1007.01 1007.30 1007.51 1007.77 1008.20 1008.47 1008.65 1008.82 1009.02 1009.11 1009.10 1008.97 1009.09 1009.70 1010.30 1010.85 1011.25 1011.61 1012.06 1012.60 1013.41 1013.91 1014.48 1014.68
1021.44 1021.26 1020.52 1019.85 1018.63 1017.99 1016.11 1015.45 1014.67 1014.64 1014.65 1014.96 1014.70 1014.16 1013.33 1012.15 1010.81 1009.51 1007.71 1006.38 1006.26 1006.20 1006.11 1005.91 1006.10 1006.32 1006.44 1006.81 1007.22 1007.51 1007.76 1007.93 1008.07 1008.50 1008.73 1008.69 1008.80 1008.76 1008.84 1009.48 1010.15 1010.65 1010.99 1011.29 1011.79 1012.32 1013.04 1013.64 1013.83
1021.05 1021.03 1020.48 1019.65 1018.15 1016.76 1015.57 1015.72 1015.52 1015.64 1015.56 1015.22 1014.61 1014.00 1013.19 1012.13 1010.91 1009.61 1008.10 1006.86 1005.96 1005.73 1005.66 1005.75 1005.73 1005.73 1005.77 1006.00 1006.25 1006.41 1006.72 1007.05 1007.37 1007.78 1007.95 1008.15 1008.28 1008.62 1008.66 1008.64 1009.21 1009.80 1010.40 1010.86 1011.15 1011.69 1012.30 1012.70 1013.17
1020.44 1020.12 1019.79 1019.39 1018.29 1017.57 1016.42 1015.87 1016.65 1016.84 1016.60 1016.22 1015.57 1014.65 1013.56 1012.29 1011.01 1009.87 1008.60 1007.51 1006.50 1005.45 1005.13 1005.03 1004.87 1005.07 1005.15 1005.35 1005.38 1005.58 1005.84 1006.30 1006.75 1006.98 1007.07 1007.25 1007.55 1007.77 1008.31 1008.28 1008.32 1008.98 1009.68 1010.22 1010.63 1011.04 1011.53 1011.83 1012.15
1019.30 1019.12 1019.22 1018.82 1018.28 1018.04 1017.82 1016.62 1016.92 1017.07 1016.73 1016.48 1015.64 1014.47 1013.54 1012.59 1011.60 1010.48 1009.51 1008.50 1007.52 1006.53 1005.43 1004.58 1004.51 1004.53 1004.62 1004.66 1004.91 1005.22 1005.40 1005.78 1006.09 1006.31 1006.47 1006.72 1006.84 1007.05 1007.50 1008.13 1008.26 1008.16 1008.53 1009.48 1010.03 1010.39 1010.75 1011.13 1011.33
Wind_Speed
2 2 2 3 6 5 7 4 1 6 6 1 1 3 2 8 4 4 5 7 14 5 11 15 13 13 13 13 13 13 14 13 12 13 13 14 13 13 11 9 11 14 15 17 18 18 17 17 17
2 2 3 2 5 7 5 4 8 5 4 1 2 4 5 5 6 4 8 20 16 7 11 14 15 15 14 15 15 13 12 12 12 13 14 13 14 13 11 9 12 14 16 17 17 17 16 17 17
2 2 4 4 3 6 1 4 7 5 3 1 5 2 3 4 7 8 15 18 14 8 11 11 13 15 14 15 14 15 15 14 13 13 13 14 13 14 12 9 12 13 15 17 17 16 16 16 16
3 3 3 5 7 1 3 5 5 4 3 3 1 7 6 8 4 12 14 15 12 7 11 13 13 15 14 14 15 15 16 15 14 15 14 13 14 13 11 11 12 13 15 15 17 15 15 15 15
2 2 4 4 5 1 1 3 3 6 3 2 1 4 6 5 5 12 13 13 14 6 8 12 13 14 15 14 16 16 15 15 14 14 13 13 13 12 11 13 13 14 13 14 16 15 14 14 14
3 2 5 9 5 2 3 3 2 3 2 3 2 3 5 7 9 12 12 12 10 11 10 5 11 11 13 13 13 15 16 15 14 13 12 12 13 13 14 14 14 13 14 13 14 15 14 13 14
3 5 5 4 4 5 4 2 5 3 2 3 2 3 4 6 9 11 10 9 8 10 10 8 6 12 8 12 14 13 14 15 15 14 13 12 10 13 15 15 14 14 13 11 13 13 13 13 13
0 2 6 5 7 4 4 4 1 4 3 5 3 4 4 4 9 10 8 7 9 7 7 8 5 5 10 9 9 13 12 13 15 11 9 7 8 10 13 12 13 14 13 10 10 12 12 13 13
1 4 6 4 6 5 4 5 2 0 6 2 3 5 4 7 10 10 10 9 9 8 10 10 9 7 4 9 8 9 10 11 11 10 8 8 11 13 14 10 11 12 12 10 9 11 11 11 10
4 4 3 4 2 3 4 2 1 4 6 8 9 9 9 9 10 12 10 11 10 10 9 7 8 8 5 4 8 10 10 8 10 12 13 11 11 11 11 10 9 10 10 9 9 10 11 10 8
3 3 3 2 1 2 2 6 6 7 11 14 11 11 10 12 14 12 12 10 11 10 9 7 7 7 6 4 3 4 5 6 7 11 12 12 7 7 8 7 8 9 8 8 8 9 8 7 7
4 2 0 1 1 3 5 4 8 14 16 9 12 13 16 17 15 13 13 13 13 12 12 10 8 7 6 4 4 6 7 8 7 10 13 7 6 8 9 7 7 8 8 10 9 7 8 8 7
3 3 2 3 7 8 10 14 14 15 14 16 16 15 17 17 18 17 15 13 12 15 14 14 10 9 7 6 4 5 8 9 11 10 14 11 11 10 9 9 8 9 9 9 9 8 8 8 8
2 1 3 6 8 8 12 17 8 4 5 8 11 14 14 18 19 18 17 17 16 16 16 14 13 11 9 8 6 5 6 9 10 11 12 16 12 11 10 10 10 10 9 9 9 9 8 8 7
2 4 4 4 4 5 7 15 12 7 4 9 11 12 13 15 16 16 16 17 15 14 15 14 14 12 11 11 9 7 6 7 8 11 16 17 14 14 13 10 11 10 10 12 10 10 9 8 7
0 2 4 3 4 1 2 11 8 1 6 14 19 19 17 18 20 19 18 18 17 17 17 16 13 13 13 12 10 8 8 7 7 10 11 18 17 17 15 11 11 11 10 10 10 9 9 9 9
3 3 4 6 2 5 6 13 2 12 22 21 18 16 16 17 17 18 18 17 17 16 16 16 15 15 15 13 11 11 11 9 8 8 10 17 16 16 12 12 12 13 10 11 10 10 11 9 9
2 3 2 8 1 9 16 23 22 16 19 19 17 15 9 10 13 13 13 13 15 15 15 16 14 16 15 11 10 9 10 10 10 10 10 17 14 16 13 10 13 12 11 11 11 12 11 10 9
2 2 7 10 6 8 14 21 20 20 18 16 15 9 7 13 15 14 12 13 14 14 15 16 16 17 13 11 11 11 12 11 11 10 15 18 15 15 16 12 12 12 13 14 15 13 13 11 10
3 6 9 10 4 8 14 24 21 12 10 7 7 9 14 17 17 16 15 13 13 15 15 16 17 17 15 11 11 11 11 11 11 10 13 13 14 14 15 14 12 14 13 16 15 15 11 10 11
7 9 8 6 9 13 14 16 4 4 4 4 8 13 18 19 20 19 18 17 14 15 16 17 18 17 17 17 11 10 10 9 10 11 10 12 15 16 16 16 12 13 12 11 15 14 16 11 12
5 2 7 7 6 6 5 7 4 3 3 6 10 16 20 22 22 21 21 19 17 15 15 16 17 18 16 17 14 18 13 13 12 12 12 12 14 16 17 16 15 14 11 13 13 12 12 12 12
3 2 6 9 9 8 3 4 4 1 4 8 19 22 23 24 23 23 21 20 18 16 14 14 15 17 17 16 18 15 17 12 11 12 15 17 12 15 15 17 17 14 12 13 13 11 12 12 10
5 7 6 4 4 5 2 5 4 3 5 17 23 23 23 23 23 23 22 20 16 13 13 13 14 16 16 17 18 19 19 16 12 14 12 12 12 9 17 16 13 14 13 13 13 13 15 13 11
4 4 3 3 3 3 2 5 9 9 7 21 23 24 22 21 19 19 21 18 15 13 13 12 12 15 16 17 17 18 17 18 18 16 12 14 11 10 13 13 14 12 14 14 15 13 14 14 13
3 2 4 5 4 7 5 7 1 3 13 20 20 20 19 19 19 19 19 14 14 13 13 12 12 14 14 15 16 15 17 11 12 15 12 12 12 12 15 12 13 15 15 13 14 11 11 13 13
5 4 1 5 4 5 2 5 7 7 21 20 18 18 18 20 19 18 18 11 9 10 12 11 11 12 12 14 13 15 15 16 14 17 15 12 14 12 16 17 15 13 13 16 15 12 14 14 15
4 2 4 4 5 5 3 4 4 16 19 18 21 19 19 17 18 17 15 17 8 8 9 10 10 10 11 14 15 14 16 17 16 14 17 17 15 17 17 18 18 16 13 14 14 12 13 15 12
4 3 4 4 4 4 6 2 3 12 14 15 16 16 15 16 17 16 16 15 16 9 7 8 8 9 12 13 14 14 13 15 15 15 16 17 17 17 17 18 17 18 15 13 12 14 13 16 15
1 3 3 4 1 4 3 4 8 14 15 14 13 15 14 13 12 12 13 13 13 14 13 7 5 7 11 12 12 12 12 13 15 17 18 17 17 16 16 18 18 17 17 15 15 15 13 13 15
Wind_Direction
293 313 249 198 198 246 219 187 58 169 193 149 330 271 354 4 353 33 357 349 346 266 187 170 157 154 148 137 135 138 146 149 146 150 152 154 152 151 149 150 132 124 125 117 112 108 110 110 112
321 205 211 148 236 206 161 136 188 140 57 302 238 242 222 98 31 19 359 338 326 268 184 182 157 158 161 150 148 143 143 145 151 155 156 162 160 159 162 154 132 128 124 113 111 111 114 116 116
153 324 200 197 227 224 140 174 138 115 65 39 171 349 15 26 43 3 344 326 303 235 191 178 161 161 163 162 155 154 155 158 159 159 164 164 165 159 167 149 131 125 122 116 119 118 120 119 119
177 159 138 233 204 112 7 141 144 154 125 57 19 129 100 46 24 353 355 342 333 212 192 147 168 165 163 171 161 162 162 163 166 166 173 170 167 162 163 136 127 119 120 123 122 124 125 124 123
76 178 191 233 211 104 155 109 161 161 118 77 344 120 115 79 37 15 12 10 5 341 206 173 180 171 170 173 164 167 166 166 171 174 172 161 160 157 150 135 130 126 124 130 132 131 130 129 127
137 242 191 215 174 185 181 162 266 223 133 103 164 153 126 114 27 8 9 26 10 16 3 229 182 186 185 177 172 172 170 170 174 176 176 173 162 151 147 142 137 133 131 139 143 137 135 132 131
192 212 206 165 185 194 162 173 222 259 232 120 8 230 110 172 16 356 359 27 27 19 19 15 242 195 208 199 192 183 176 175 177 181 183 179 162 152 151 149 146 142 138 140 146 142 139 137 135
26 258 178 211 205 164 135 162 1 240 227 324 309 225 157 62 353 343 353 7 31 36 32 26 17 242 216 218 210 198 186 182 177 175 176 165 148 150 157 151 154 148 144 143 144 146 145 139 139
243 219 217 194 186 113 135 192 144 153 259 266 274 286 4 327 331 335 342 345 359 12 20 14 19 8 279 218 209 206 202 184 179 163 172 167 186 184 165 174 149 151 147 145 155 150 140 130 132
223 227 199 17 70 118 137 250 258 257 216 235 252 262 278 302 316 321 322 320 327 339 349 357 5 360 344 247 218 208 207 206 195 188 184 200 197 186 190 156 148 150 147 145 153 145 133 174 156
149 251 136 88 27 344 252 244 240 256 252 250 259 281 290 293 299 298 296 294 301 307 305 321 330 335 344 304 228 206 208 199 198 201 193 196 193 189 184 168 173 171 170 177 172 157 184 195 174
160 152 318 91 62 301 267 293 258 250 255 286 270 276 285 283 283 283 285 291 291 288 290 296 299 303 312 316 264 210 206 204 194 194 196 191 180 189 188 179 180 186 183 188 194 190 189 190 187
194 145 262 290 290 286 277 263 266 268 267 265 267 267 266 272 277 279 278 278 273 278 283 282 283 277 277 282 291 263 224 208 202 200 197 188 185 189 187 185 185 193 189 193 191 199 189 192 191
84 187 285 284 282 279 278 278 286 218 242 268 258 261 263 270 273 276 272 270 270 272 274 276 272 268 265 262 261 264 254 227 209 202 205 198 193 194 194 190 199 195 194 195 197 194 195 194 194
69 297 283 261 290 270 312 267 236 265 292 274 267 267 267 270 273 265 269 268 266 266 270 274 273 264 252 248 247 244 245 237 223 212 204 202 197 196 193 195 201 201 196 195 199 201 198 195 198
287 236 279 113 295 258 233 256 158 21 305 289 285 280 278 274 269 269 267 263 259 260 259 263 260 254 248 242 240 241 232 236 226 218 206 205 200 202 197 198 203 201 199 199 198 197 204 204 197
53 315 301 294 277 290 238 288 276 285 288 282 281 285 286 284 278 271 264 259 263 260 258 257 254 251 248 245 241 238 240 236 230 220 210 208 203 203 199 202 204 199 198 202 200 201 204 207 207
108 312 284 273 181 270 278 274 277 277 270 277 281 284 283 298 298 293 275 267 261 257 253 252 250 247 243 244 242 238 236 232 232 223 213 211 203 199 204 194 206 199 199 201 199 204 204 207 211
125 234 273 272 286 276 270 279 286 281 277 267 264 251 286 309 308 293 283 274 265 257 254 247 245 241 235 232 231 231 229 229 230 228 226 216 210 197 198 200 196 197 204 202 197 199 202 202 208
248 285 271 275 218 284 295 288 286 290 282 243 226 267 300 312 307 299 291 275 261 260 255 249 245 239 233 234 233 233 230 229 231 223 226 217 198 202 201 195 194 197 207 205 200 198 198 205 198
237 254 286 287 320 275 283 270 228 202 256 253 265 281 296 306 305 300 294 286 270 261 256 253 247 239 232 229 229 228 230 230 223 225 219 218 210 200 205 195 190 196 207 208 200 197 199 199 197
274 226 270 294 307 285 332 291 294 263 242 247 292 315 315 312 307 300 295 287 278 269 262 258 248 241 234 226 223 222 223 220 221 222 224 220 213 207 200 199 190 193 194 202 199 197 198 200 201
288 183 249 264 267 288 154 253 275 273 268 318 327 327 321 313 307 301 293 286 280 274 261 255 242 240 235 223 220 219 223 227 224 222 220 219 220 221 204 201 197 194 198 202 197 193 206 203 206
284 275 248 251 252 254 183 252 257 257 315 324 331 325 319 314 309 304 296 286 275 266 256 242 232 237 231 225 220 223 224 224 223 223 223 220 213 212 221 206 207 198 195 190 195 191 201 208 205
223 279 256 231 217 297 148 225 275 280 300 334 331 322 318 311 306 299 293 286 272 252 242 229 227 229 222 218 219 222 224 226 227 227 227 224 218 216 214 208 205 199 191 192 197 194 195 206 205
185 228 308 299 303 310 139 241 223 22 330 341 324 320 313 315 315 312 306 285 269 257 248 236 217 215 215 215 218 219 218 219 225 229 229 235 231 220 212 212 213 204 197 194 191 192 202 205 210
135 214 342 272 216 267 233 254 248 332 338 333 324 323 320 321 322 320 323 324 286 263 253 246 231 224 214 217 217 220 215 217 219 223 228 233 236 234 220 212 210 210 213 201 193 199 202 204 209
228 10 235 195 293 292 232 267 295 337 319 323 329 326 324 324 325 329 333 339 318 279 259 243 238 228 224 219 216 214 215 217 218 220 222 226 228 237 233 217 213 207 208 211 201 203 205 211 212
187 226 229 279 273 305 310 350 55 316 323 323 313 315 318 327 333 341 343 341 340 321 274 255 244 227 225 222 219 217 213 218 223 220 220 220 224 217 231 229 214 215 208 204 207 207 208 215 212
268 277 241 279 154 229 287 294 6 327 328 330 326 326 344 346 347 348 349 350 352 342 309 266 256 230 228 229 224 218 213 217 222 223 221 220 222 218 216 232 232 229 221 216 215 213 209 219 221